DW7465 Weather Reports


Display with metric or nautical units.
time (UTC)temp
F
wind
direction
speed
MPH
gust
MPH
rain 1hr
in
rain 24hr
in
rain mn
in
humidity
%
barometer
mb
20260505021548 74 0 0.0 2.0 0.00 0.00 0.00 49 1009.0
20260505020044 75 0 0.0 2.0 0.00 0.00 0.00 48 1009.1
20260505014602 76 0 0.0 5.0 0.00 0.00 0.00 47 1009.0
20260505013043 77 306 0.0 4.0 0.00 0.00 0.00 46 1009.1
20260505011556 78 0 0.0 5.0 0.00 0.00 0.00 40 1009.1
20260505010045 79 0 0.0 2.0 0.00 0.00 0.00 39 1009.2
20260505004547 80 0 0.0 4.0 0.00 0.00 0.00 39 1009.1
20260505003049 79 0 0.0 3.0 0.00 0.00 0.00 37 1009.2
20260505001542 80 0 0.0 7.0 0.00 0.00 0.00 38 1009.2
20260505000058 82 0 1.0 6.0 0.00 0.00 0.00 35 1009.2
20260504234548 85 331 0.0 4.0 0.00 0.00 0.00 38 1009.3
20260504233103 84 0 0.0 8.0 0.00 0.00 0.00 39 1009.3
20260504231544 86 0 0.0 4.0 0.00 0.00 0.00 38 1009.3
20260504230042 84 0 0.0 9.0 0.00 0.00 0.00 41 1009.3
20260504224552 85 0 0.0 7.0 0.00 0.00 0.00 43 1009.4
20260504223100 86 0 0.0 3.0 0.00 0.00 0.00 41 1009.6
20260504221544 85 0 0.0 4.0 0.00 0.00 0.00 41 1009.8
20260504220046 83 0 0.0 8.0 0.00 0.00 0.00 42 1010.0
20260504214548 82 0 0.0 9.0 0.00 0.00 0.00 44 1010.1
20260504213057 81 0 1.0 7.0 0.00 0.00 0.00 37 1010.3
20260504211546 81 0 0.0 8.0 0.00 0.00 0.00 38 1010.3
20260504210056 80 143 0.0 10.0 0.00 0.00 0.00 38 1010.4
20260504204548 80 315 0.0 8.0 0.00 0.00 0.00 37 1010.4
20260504203106 79 288 0.0 7.0 0.00 0.00 0.00 39 1010.3
20260504201549 80 296 1.0 4.0 0.00 0.00 0.00 43 1010.4
20260504200047 80 297 0.0 7.0 0.00 0.00 0.00 41 1010.5
20260504194546 79 0 0.0 4.0 0.00 0.00 0.00 43 1010.3
20260504193046 79 0 0.0 3.0 0.00 0.00 0.00 43 1010.3
20260504191557 78 0 0.0 2.0 0.00 0.00 0.00 40 1010.4
20260504190050 78 310 0.0 5.0 0.00 0.00 0.00 46 1010.7
20260504184546 76 0 0.0 5.0 0.00 0.00 0.00 45 1010.8
20260504183049 77 0 0.0 4.0 0.00 0.00 0.00 45 1010.8
20260504181548 76 0 0.0 5.0 0.00 0.00 0.00 44 1010.7
20260504180046 75 0 0.0 4.0 0.00 0.00 0.00 46 1010.6
20260504174546 74 0 0.0 4.0 0.00 0.00 0.00 52 1010.6
20260504173048 74 0 0.0 3.0 0.00 0.00 0.00 54 1010.6
20260504171549 73 0 0.0 5.0 0.00 0.00 0.00 56 1010.6
20260504081546 52 0 0.0 0.0 0.00 0.00 0.00 87 1009.3
20260504044551 61 0 0.0 0.0 0.00 0.00 0.00 70 1009.4
20260504043052 62 0 0.0 0.0 0.00 0.00 0.00 66 1009.4
20260504041548 63 0 0.0 0.0 0.00 0.00 0.00 64 1009.4
20260504040104 64 0 0.0 0.0 0.00 0.00 0.00 62 1009.6
20260504034600 66 0 0.0 0.0 0.00 0.00 0.00 58 1009.4
20260504033048 67 0 0.0 0.0 0.00 0.00 0.00 56 1009.4
20260504031546 69 0 0.0 0.0 0.00 0.00 0.00 54 1009.4
20260504030117 70 0 0.0 0.0 0.00 0.00 0.00 52 1009.4
20260504024549 72 0 0.0 2.0 0.00 0.00 0.00 51 1009.4
20260504023044 73 333 0.0 1.0 0.00 0.00 0.00 48 1009.4